Simultaneous Nadir Overpasses (SNOs) Predictions

Prediction of SNOs between NPP and TERRA Satellite Orbit:

Table of predicted SNOs for the next 14.0 days since TLE Epoch: 3/13/2021
Index Date (NPP) Time (NPP) Lat,Lon (NPP) SZA (NPP ) Date (TERRA) Time (TERRA) Lat,Lon (TERRA) SZA (TERRA ) Distance(km) Time Diff (sec)
1 03/13/2021 09:48:20 -69.42,-149.93 107.85 03/13/2021 09:49:27 -69.34,-147.77 107.99 85.29 67
2 03/13/2021 10:38:48 68.43, 18.72 71.11 03/13/2021 10:39:08 68.45, 18.76 71.13 3.31 20
3 03/13/2021 11:29:29 -68.30,-173.80 109.04 03/13/2021 11:28:39 -68.29,-173.81 109.05 1.53 50
4 03/16/2021 02:04:58 -68.53, -32.95 109.83 03/16/2021 02:06:09 -68.52, -32.93 109.86 1.84 71
5 03/16/2021 02:55:42 68.40, 134.53 70.02 03/16/2021 02:55:36 68.40, 134.58 70.02 2.03 6
6 03/16/2021 03:46:21 -68.16, -57.85 110.24 03/16/2021 03:45:08 -68.19, -58.05 110.21 8.69 73
7 03/18/2021 18:21:51 -68.45, 82.93 110.98 03/18/2021 18:22:37 -68.47, 82.89 110.97 2.39 46
8 03/18/2021 19:12:35 68.32,-109.59 68.88 03/18/2021 19:12:04 68.35,-109.61 68.91 3.18 31
9 03/18/2021 20:02:58 -67.22, 59.08 112.27 03/18/2021 20:01:51 -67.30, 56.82 112.13 97.63 67
10 03/21/2021 09:48:16 69.20, 30.37 68.75 03/21/2021 09:49:25 69.07, 31.89 68.57 61.79 69
11 03/21/2021 10:38:45 -68.43,-161.26 112.07 03/21/2021 10:39:05 -68.41,-161.30 112.09 2.54 20
12 03/21/2021 11:29:29 68.30, 6.21 67.79 03/21/2021 11:28:32 68.29, 6.20 67.78 1.20 57
13 03/24/2021 02:04:56 68.48, 147.12 66.95 03/24/2021 02:06:01 68.50, 147.06 66.96 3.00 65
14 03/24/2021 02:55:38 -68.40, -45.46 113.15 03/24/2021 02:55:31 -68.40, -45.43 113.16 1.07 7
15 03/24/2021 03:46:15 67.90, 122.49 66.32 03/24/2021 03:45:04 67.94, 121.67 66.39 34.55 71
16 03/26/2021 18:21:50 68.47, -97.08 65.87 03/26/2021 18:22:28 68.48, -97.08 65.89 1.97 38
17 03/26/2021 19:12:31 -68.33, 70.42 114.29 03/26/2021 19:11:59 -68.33, 70.37 114.28 2.03 32



Historial Predications of SNOs between NPP and TERRA
